Alice Springs, Australia

8:52 PM ACST on December 07, 2019 (GMT +0930)
Alice Springs

Weather History for YBAS - August, 2019

Change the Weather History Date:

Thursday, August 15, 2019

  Actual Average Record
Temperature  
Mean Temperature 56 °F -  
Max Temperature 77 °F 76 °F 89 °F (2017)
Min Temperature 34 °F 46 °F 26 °F (2002)
Degree Days  
Heating Degree Days 10    
Growing Degree Days 6 (Base 50)    
Moisture  
Dew Point 10 °F    
Average Humidity 15    
Maximum Humidity 35    
Minimum Humidity 4    
Precipitation  
Precipitation 0.00 in 0.01 in - ()
Sea Level Pressure  
Sea Level Pressure 30.16 in    
Wind  
Wind Speed 2 mph ()    
Max Wind Speed 8 mph    
Max Gust Speed -    
Visibility 6.2 miles    
Events      
Averages and records for this station are not official NWS values.
T = Trace of Precipitation, MM = Missing Value Source: Averaged Metar Reports

Daily Weather History Graph

Daily Weather History Graph

Search for Another Location

Airport or City:

Astronomy

Aug. 15, 2019 Rise Set
Actual Time 7:01 AM ACST 6:17 PM ACST
Civil Twilight 6:37 AM ACST 6:40 PM ACST
Nautical Twilight 6:10 AM ACST 7:07 PM ACST
Astronomical Twilight 5:44 AM ACST 7:33 PM ACST
Moon 6:04 PM ACST (8/15) 6:48 AM ACST (8/15)
Length of Visible Light 12h 02m
Length of Day
11h 16m
Full, 100% of the Moon is Illuminated
Aug 15
Full
Aug 15
Full
Aug 24
Last Quarter
Aug 30
New
Sep 6
First Quarter

Hourly Weather History & Observations

Time (ACST) Temp. Windchill Dew Point Humidity Pressure Visibility Wind Dir Wind Speed Gust Speed Precip Events Conditions
12:00 AM 45 °F - 9 °F 12% 30.19 in - Calm Calm - -   Clear
12:30 AM 44 °F - 10 °F 13% 30.19 in - Calm Calm - -  
12:30 AM 44.6 °F - 10.4 °F 25% 30.18 in 6.2 mi Calm Calm - N/A   Unknown
1:00 AM 42.8 °F - 10.4 °F 27% 30.18 in 6.2 mi Calm Calm - N/A   Unknown
1:30 AM 42.8 °F - 10.4 °F 27% 30.18 in 6.2 mi Calm Calm - N/A   Unknown
2:00 AM 39.2 °F - 10.4 °F 31% 30.18 in 6.2 mi Calm Calm - N/A   Unknown
2:30 AM 40 °F - 10 °F 16% 30.17 in - WNW 5.8 mph - -  
2:30 AM 39.2 °F 35.0 °F 8.6 °F 28% 30.18 in 6.2 mi WNW 5.8 mph - N/A   Unknown
3:00 AM 39 °F - 10 °F 17% 30.17 in - West 5.8 mph - -   Clear
3:30 AM 39 °F - 9 °F 17% 30.17 in - West 5.8 mph - -  
3:30 AM 39.2 °F 35.0 °F 8.6 °F 28% 30.18 in 6.2 mi West 5.8 mph - N/A   Unknown
4:00 AM 37.4 °F 33.8 °F 8.6 °F 30% 30.18 in 6.2 mi WSW 4.6 mph - N/A   Unknown
4:30 AM 39.2 °F 35.9 °F 10.4 °F 31% 30.18 in 6.2 mi West 4.6 mph - N/A   Unknown
5:00 AM 37.4 °F 34.9 °F 10.4 °F 33% 30.18 in 6.2 mi NW 3.5 mph - N/A   Unknown
5:30 AM 36 °F - 10 °F 20% 30.17 in - NNW 2.3 mph - -  
5:30 AM 37.4 °F - 8.6 °F 30% 30.18 in 6.2 mi NNW 2.3 mph - N/A   Unknown
6:00 AM 36 °F - 8 °F 18% 30.18 in - West 1.2 mph - -   Clear
6:30 AM 36 °F - 8 °F 18% 30.19 in - Calm Calm - -  
6:30 AM 35.6 °F - 8.6 °F 33% 30.21 in 6.2 mi Calm Calm - N/A   Unknown
7:00 AM 35.6 °F - 10.4 °F 35% 30.21 in 6.2 mi Calm Calm - N/A   Unknown
7:30 AM 37.4 °F 33.8 °F 8.6 °F 30% 30.21 in 6.2 mi South 4.6 mph - N/A   Unknown
8:00 AM 41.0 °F - 10.4 °F 29% 30.21 in 6.2 mi Calm Calm - N/A   Unknown
8:28 AM 50.0 °F - 15.8 °F 26% 30.24 in 6.2 mi Calm Calm - N/A   Unknown
8:30 AM 51 °F - 16 °F 13% 30.22 in - Calm Calm - -  
8:30 AM 51.8 °F - 15.8 °F 24% 30.24 in 6.2 mi Calm Calm - N/A   Unknown
9:00 AM 56 °F - 16 °F 11% 30.22 in - South 1.2 mph - -   Clear
9:00 AM 57.2 °F - 15.8 °F 20% 30.24 in - South 1.2 mph - N/A   Clear
9:30 AM 65 °F - 14 °F 6% 30.22 in - South 1.2 mph - -  
9:30 AM 64.4 °F - 14.0 °F 14% 30.24 in - South 1.2 mph - N/A   Clear
10:00 AM 68.0 °F - 14.0 °F 12% 30.24 in - North 8.1 mph - N/A   Clear
10:30 AM 68.0 °F - 12.2 °F 12% 30.24 in - NNW 6.9 mph - N/A   Clear
11:00 AM 69.8 °F - 12.2 °F 11% 30.21 in - North 5.8 mph - N/A   Clear
11:30 AM 71 °F - 11 °F 4% 30.21 in - West 8.1 mph - -  
11:30 AM 71.6 °F - 12.2 °F 10% 30.21 in - West 8.1 mph - N/A   Clear
12:00 PM 72 °F - 13 °F 4% 30.19 in - SSE 5.8 mph - -   Clear
12:00 PM 71.6 °F - 12.2 °F 10% 30.21 in 6.2 mi SSE 5.8 mph - N/A   Unknown
12:30 PM 73 °F - 11 °F 4% 30.17 in - WNW 8.1 mph - -  
12:30 PM 73.4 °F - 10.4 °F 9% 30.18 in 6.2 mi WNW 8.1 mph - N/A   Unknown
1:00 PM 73.4 °F - 10.4 °F 9% 30.15 in 6.2 mi North 6.9 mph - N/A   Unknown
1:30 PM 73.4 °F - 12.2 °F 10% 30.15 in 6.2 mi North 5.8 mph - N/A   Unknown
2:30 PM 75 °F - 10 °F 4% 30.10 in - NNW 6.9 mph - -  
2:30 PM 75.2 °F - 10.4 °F 8% 30.12 in 6.2 mi NNW 6.9 mph - N/A   Unknown
3:00 PM 75 °F - 10 °F 4% 30.09 in - NNE 4.6 mph - -   Clear
3:00 PM 75.2 °F - 10.4 °F 8% 30.09 in 6.2 mi NNE 4.6 mph - N/A   Unknown
3:30 PM 75 °F - 10 °F 4% 30.08 in - South 2.3 mph - -  
3:30 PM 75.2 °F - 8.6 °F 8% 30.09 in 6.2 mi South 2.3 mph - N/A   Unknown
4:00 PM 75.2 °F - 8.6 °F 8% 30.09 in 6.2 mi West 4.6 mph - N/A   Unknown
4:30 PM 77.0 °F - 10.4 °F 8% 30.09 in 6.2 mi SSW 5.8 mph - N/A   Unknown
5:00 PM 75.2 °F - 10.4 °F 8% 30.09 in 6.2 mi WSW 6.9 mph - N/A   Unknown
5:30 PM 74 °F - 11 °F 4% 30.08 in - WSW 5.8 mph - -  
5:30 PM 73.4 °F - 10.4 °F 9% 30.09 in 6.2 mi WSW 5.8 mph - N/A   Unknown
6:00 PM 74 °F - 12 °F 4% 30.08 in - Calm Calm - -   Clear
6:00 PM 75.2 °F - 12.2 °F 9% 30.09 in 6.2 mi Calm Calm - N/A   Unknown
6:30 PM 69 °F - 10 °F 4% 30.09 in - Calm Calm - -  
7:00 PM 64.4 °F - 8.6 °F 11% 30.09 in 6.2 mi Calm Calm - N/A   Unknown
7:30 PM 60.8 °F - 8.6 °F 13% 30.12 in 6.2 mi Calm Calm - N/A   Unknown
8:30 PM 57 °F - 10 °F 7% 30.12 in - North 1.2 mph - -  
8:30 PM 57.2 °F - 10.4 °F 16% 30.12 in 6.2 mi North 1.2 mph - N/A   Unknown
9:00 PM 52 °F - 7 °F 7% 30.12 in - Calm Calm - -   Clear
9:00 PM 51.8 °F - 6.8 °F 16% 30.12 in 6.2 mi Calm Calm - N/A   Unknown
9:30 PM 51 °F - 8 °F 8% 30.13 in - Calm Calm - -  
9:30 PM 51.8 °F - 8.6 °F 18% 30.12 in 6.2 mi Calm Calm - N/A   Unknown
10:00 PM 51.8 °F - 6.8 °F 16% 30.15 in 6.2 mi Calm Calm - N/A   Unknown
10:30 PM 50.0 °F - 8.6 °F 19% 30.15 in 6.2 mi WNW 5.8 mph - N/A   Unknown
11:00 PM 51.8 °F - 6.8 °F 16% 30.15 in 6.2 mi West 4.6 mph - N/A   Unknown
11:30 PM 48 °F - 6 °F 8% 30.13 in - West 2.3 mph - -  
11:30 PM 48.2 °F - 6.8 °F 19% 30.12 in 6.2 mi West 2.3 mph - N/A   Unknown